CZ-4 DEB, 26122

Orbit data source: Space-Track

CZ-4 DEB, 26122 is space debris in SSO originally from a launch on Thu, 14 Oct 1999 UTC launched from the Taiyaun Space Center, China (TSC). Debris objects in space refer to the collection of defunct objects orbiting the Earth. Examples of debris include non-operational satellites, rocket bodies, and fragments generated from explosions, collisions, or faulty payload assembly.

Loading next visibility...
Identifier
26122, 1999-057J
Orbit
SSO
Country
Flag of CNCN / PRC
Related business
Manufacturer
Unknown
Mission
Spacecraft
Bus & Motor
Unknown
Mass
Unknown
Launch date (UTC)
1999-10-14 (26 years ago)
Launch vehicle
Unknown
Launch site
Taiyaun Space Center, China (TSC)
Object type
Payload
Rocket body
Debris
Shape & HBR
Unknown shape, 0.2 m
Radar Cross Section
Small (<0.1 m²)

Expand to show TLE details & history
Last TLE update: 9 hours ago

TLE from 9 hours ago
0 CZ-4 DEB
1 26122U 99057J   25289.15777360  .00000763  00000-0  62533-3 0  9993
2 26122  98.9143  74.8542 0524821 315.7476 116.7807 13.42376904247231
Epoch: 2025-10-16T03:47Z
TLE epoch observation values (Epoch: 2025-10-16T03:47:11.639Z)
Latitude
74.93817°
Longitude
-42.3139°
Altitude
1,305.915 km
Speed
7.116 km/s
True Right ascension
02h 37m 37s
True Declination
74° 51' 28"
Sunlit
Object was in daylight at epoch
Visualization orbit readout
Latitude
Unknown
Longitude
Unknown
Altitude
Unknown
Speed
Unknown
Apparent Right ascension
Unknown
Apparent Declination
Unknown
Sunlit
N/A
Visualization observer readout
Local Sidereal Time
07:51:58
Azimuth
Unknown
Elevation
Unknown
Doppler factor
Unknown
Orbital elements
Apogee altitude
1,490.047 km
Perigee altitude
705.352 km
Semi-major axis
7,475.837 km
Eccentricity
0.05248
Inclination
98.9143°
RAAN
74.8542°
Arg. of periapsis
315.7476°
True anomaly
121.98817°
Mean anomaly
116.7807°
Eccentric anomaly
119.40043°
Mean motion
3.35779 °/min
Orbital period
107.21 mins
BSTAR
0.00062533
Loading maneuver chart data...
Computing Atmospheric mass density...
Loading historical data...
Loading historical data...
Loading historical data...
Loading historical data...
Loading historical data...
Loading historical data...
Loading historical data...

Documentation

Showing up to 5 results
|